When you browse on this site, cookies collect data to enhance your experience and personalize the content and advertising you see.
Visit our Privacy Policy to learn more. By continuing to use the site, you agree to this use of cookies and data.

Hourly Weather Malka

Today, 15 August, Saturday

Time Temperature Precipitation Wind Pressure Humidity
00:00 +11°C° 0 mm 1 mps 750 mmHg 85%
01:00 +11°C° 0 mm 1 mps 750 mmHg 86%
02:00 +10°C° 0 mm 1 mps 750 mmHg 87%
03:00 +11°C° 0 mm 1 mps 750 mmHg 85%
04:00 +11°C° 0 mm 1 mps 750 mmHg 84%
05:00 +11°C° 0 mm 1 mps 750 mmHg 82%
06:00 +12°C° 0 mm 1 mps 750 mmHg 79%
07:00 +13°C° 0 mm 0 mps 750 mmHg 77%
08:00 +14°C° 0 mm 0 mps 750 mmHg 74%
09:00 +15°C° 0 mm 0 mps 750 mmHg 69%
10:00 +17°C° 0 mm 0 mps 750 mmHg 63%
11:00 +20°C° 0 mm 1 mps 750 mmHg 58%
12:00 +20°C° 0 mm 1 mps 750 mmHg 56%
13:00 +21°C° 0 mm 1 mps 750 mmHg 55%
14:00 +20°C° 0 mm 2 mps 750 mmHg 53%
15:00 +19°C° 0 mm 2 mps 750 mmHg 57%
16:00 +19°C° 0 mm 2 mps 749 mmHg 62%
17:00 +19°C° 0 mm 1 mps 749 mmHg 66%
18:00 +16°C° 0 mm 1 mps 749 mmHg 74%
19:00 +14°C° 0 mm 1 mps 749 mmHg 82%
20:00 +12°C° 0 mm 1 mps 749 mmHg 90%
21:00 +12°C° 0 mm 1 mps 749 mmHg 91%
22:00 +12°C° 0 mm 1 mps 749 mmHg 93%
23:00 +12°C° 0 mm 1 mps 749 mmHg 94%

Tomorrow, 16 August, Sunday

Time Temperature Precipitation Wind Pressure Humidity
00:00 +12°C° 0 mm 1 mps 749 mmHg 95%
01:00 +11°C° 0 mm 1 mps 749 mmHg 96%
02:00 +11°C° 0 mm 1 mps 748 mmHg 97%
03:00 +11°C° 0 mm 1 mps 748 mmHg 97%
04:00 +11°C° 0 mm 1 mps 748 mmHg 97%
05:00 +12°C° 0 mm 2 mps 748 mmHg 97%
06:00 +13°C° 0 mm 2 mps 748 mmHg 92%
07:00 +15°C° 0 mm 2 mps 747 mmHg 86%
08:00 +17°C° 0 mm 2 mps 747 mmHg 81%
09:00 +19°C° 0 mm 2 mps 747 mmHg 74%
10:00 +21°C° 0 mm 3 mps 747 mmHg 68%
11:00 +24°C° 0 mm 3 mps 747 mmHg 62%
12:00 +24°C° 0.1 mm 3 mps 746 mmHg 63%
13:00 +24°C° 0.1 mm 3 mps 746 mmHg 65%
14:00 +24°C° 0.1 mm 3 mps 746 mmHg 66%
15:00 +23°C° 0.2 mm 2 mps 746 mmHg 70%
16:00 +21°C° 0.2 mm 2 mps 746 mmHg 74%
17:00 +21°C° 0.2 mm 2 mps 745 mmHg 78%
18:00 +20°C° 0.1 mm 2 mps 745 mmHg 82%
19:00 +19°C° 0.1 mm 2 mps 745 mmHg 87%
20:00 +18°C° 0.1 mm 3 mps 745 mmHg 91%
21:00 +17°C° 0.2 mm 2 mps 745 mmHg 92%
22:00 +17°C° 0.2 mm 2 mps 745 mmHg 94%
23:00 +16°C° 0.2 mm 2 mps 745 mmHg 95%

Day after tomorrow, 17 August, Monday

Time Temperature Precipitation Wind Pressure Humidity
00:00 +16°C° 0.1 mm 2 mps 745 mmHg 96%
01:00 +16°C° 0.1 mm 2 mps 745 mmHg 97%
02:00 +15°C° 0.1 mm 2 mps 745 mmHg 97%
03:00 +15°C° 0 mm 2 mps 745 mmHg 98%
04:00 +15°C° 0 mm 2 mps 745 mmHg 98%
05:00 +15°C° 0 mm 2 mps 745 mmHg 98%
06:00 +16°C° 0 mm 2 mps 745 mmHg 93%
07:00 +17°C° 0 mm 2 mps 745 mmHg 88%
08:00 +18°C° 0 mm 2 mps 745 mmHg 83%
09:00 +19°C° 0 mm 2 mps 745 mmHg 72%
10:00 +20°C° 0 mm 2 mps 745 mmHg 61%
11:00 +21°C° 0 mm 2 mps 745 mmHg 50%
12:00 +23°C° 0 mm 2 mps 745 mmHg 48%
13:00 +23°C° 0 mm 2 mps 745 mmHg 47%
14:00 +22°C° 0 mm 3 mps 745 mmHg 45%
15:00 +23°C° 0 mm 2 mps 745 mmHg 50%
16:00 +23°C° 0 mm 2 mps 745 mmHg 54%
17:00 +22°C° 0 mm 1 mps 745 mmHg 59%
18:00 +20°C° 0 mm 1 mps 745 mmHg 63%
19:00 +16°C° 0 mm 1 mps 745 mmHg 68%
20:00 +14°C° 0 mm 1 mps 746 mmHg 73%
21:00 +13°C° 0 mm 1 mps 746 mmHg 75%
22:00 +13°C° 0 mm 1 mps 746 mmHg 76%
23:00 +12°C° 0 mm 1 mps 746 mmHg 78%

18 August, Tuesday

Time Temperature Precipitation Wind Pressure Humidity
00:00 +11°C° 0 mm 0 mps 746 mmHg 78%
01:00 +10°C° 0 mm 0 mps 746 mmHg 78%
02:00 +10°C° 0 mm 0 mps 746 mmHg 78%
03:00 +10°C° 0 mm 0 mps 746 mmHg 78%
04:00 +10°C° 0 mm 0 mps 746 mmHg 78%
05:00 +10°C° 0 mm 0 mps 746 mmHg 78%
06:00 +12°C° 0 mm 0 mps 746 mmHg 75%
07:00 +14°C° 0 mm 1 mps 746 mmHg 72%
08:00 +16°C° 0 mm 1 mps 746 mmHg 69%
09:00 +18°C° 0 mm 1 mps 746 mmHg 66%
10:00 +19°C° 0 mm 1 mps 746 mmHg 64%
11:00 +21°C° 0 mm 1 mps 746 mmHg 62%
12:00 +22°C° 0 mm 1 mps 745 mmHg 60%
13:00 +23°C° 0 mm 1 mps 745 mmHg 59%
14:00 +24°C° 0 mm 1 mps 745 mmHg 57%
15:00 +23°C° 0 mm 1 mps 744 mmHg 61%
16:00 +23°C° 0 mm 1 mps 744 mmHg 66%
17:00 +21°C° 0 mm 2 mps 744 mmHg 71%
18:00 +20°C° 0 mm 2 mps 744 mmHg 75%
19:00 +18°C° 0 mm 2 mps 744 mmHg 79%
20:00 +17°C° 0 mm 2 mps 744 mmHg 84%
21:00 +16°C° 0 mm 2 mps 743 mmHg 85%
22:00 +16°C° 0 mm 2 mps 743 mmHg 87%
23:00 +15°C° 0 mm 2 mps 743 mmHg 88%

19 August, Wednesday

Time Temperature Precipitation Wind Pressure Humidity
00:00 +15°C° 0 mm 2 mps 743 mmHg 89%
01:00 +14°C° 0 mm 2 mps 743 mmHg 91%
02:00 +14°C° 0 mm 2 mps 743 mmHg 92%
03:00 +14°C° 0 mm 2 mps 743 mmHg 92%
04:00 +14°C° 0 mm 2 mps 743 mmHg 93%
05:00 +14°C° 0 mm 1 mps 743 mmHg 93%
06:00 +16°C° 0 mm 1 mps 743 mmHg 86%
07:00 +19°C° 0 mm 1 mps 743 mmHg 78%
08:00 +21°C° 0 mm 1 mps 743 mmHg 71%
09:00 +23°C° 0 mm 1 mps 743 mmHg 65%
10:00 +24°C° 0 mm 1 mps 743 mmHg 59%
11:00 +26°C° 0 mm 1 mps 743 mmHg 53%
12:00 +26°C° 0 mm 1 mps 743 mmHg 51%
13:00 +27°C° 0 mm 1 mps 743 mmHg 49%
14:00 +27°C° 0 mm 1 mps 742 mmHg 46%
15:00 +26°C° 0 mm 1 mps 742 mmHg 53%
16:00 +25°C° 0 mm 1 mps 742 mmHg 59%
17:00 +25°C° 0 mm 1 mps 742 mmHg 65%
18:00 +23°C° 0 mm 1 mps 742 mmHg 70%
19:00 +21°C° 0 mm 1 mps 742 mmHg 75%
20:00 +19°C° 0 mm 1 mps 742 mmHg 80%
21:00 +19°C° 0 mm 1 mps 742 mmHg 81%
22:00 +18°C° 0 mm 1 mps 742 mmHg 82%
23:00 +18°C° 0 mm 1 mps 742 mmHg 83%

20 August, Thursday

Time Temperature Precipitation Wind Pressure Humidity
00:00 +18°C° 0 mm 1 mps 742 mmHg 84%
01:00 +16°C° 0 mm 1 mps 742 mmHg 84%
02:00 +16°C° 0 mm 1 mps 742 mmHg 85%
03:00 +16°C° 0 mm 1 mps 742 mmHg 86%
04:00 +16°C° 0 mm 1 mps 742 mmHg 86%
05:00 +16°C° 0 mm 1 mps 742 mmHg 87%
06:00 +18°C° 0.1 mm 2 mps 742 mmHg 85%
07:00 +19°C° 0.1 mm 2 mps 742 mmHg 83%
08:00 +20°C° 0.1 mm 2 mps 742 mmHg 81%
09:00 +20°C° 0.1 mm 2 mps 742 mmHg 81%
10:00 +20°C° 0.1 mm 2 mps 742 mmHg 82%
11:00 +21°C° 0.1 mm 3 mps 743 mmHg 82%
12:00 +21°C° 0.3 mm 2 mps 743 mmHg 80%
13:00 +23°C° 0.3 mm 2 mps 742 mmHg 77%
14:00 +24°C° 0.3 mm 2 mps 742 mmHg 74%
15:00 +24°C° 0.7 mm 2 mps 742 mmHg 77%
16:00 +23°C° 0.7 mm 2 mps 742 mmHg 80%
17:00 +23°C° 0.7 mm 2 mps 742 mmHg 84%
18:00 +21°C° 0.3 mm 2 mps 742 mmHg 88%
19:00 +19°C° 0.3 mm 2 mps 742 mmHg 92%
20:00 +18°C° 0.3 mm 2 mps 742 mmHg 96%
21:00 +18°C° 0.1 mm 2 mps 742 mmHg 96%
22:00 +18°C° 0.1 mm 1 mps 742 mmHg 97%
23:00 +18°C° 0.1 mm 1 mps 742 mmHg 97%
Show more